Time,TemperatureF,DewpointF,PressureIn,WindDirection,WindDirectionDegrees,WindSpeedMPH,WindSpeedGustMPH,Humidity,HourlyPrecipIn,Conditions,Clouds,dailyrainin,SoftwareType,DateUTC
2013-10-18 00:44:00,65.0,-99.9,29.67,WSW,255,7.0,12.0,-999,0.00,,,-99.99,,2013-10-18 04:44:00,
2013-10-18 00:52:00,63.0,-99.9,29.70,NE,47,4.0,7.0,-999,0.00,,,-99.99,,2013-10-18 04:52:00,
2013-10-18 01:43:00,63.0,-99.9,29.70,NE,47,4.0,7.0,-999,0.00,,,-99.99,,2013-10-18 05:43:00,
2013-10-18 01:52:00,61.0,-99.9,29.72,ESE,122,-999.0,5.0,-999,0.00,,,-99.99,,2013-10-18 05:52:00,
2013-10-18 02:42:00,61.0,-99.9,29.72,ESE,122,-999.0,5.0,-999,0.00,,,-99.99,,2013-10-18 06:42:00,
2013-10-18 02:52:00,58.0,-99.9,29.75,SE,139,6.0,6.0,-999,0.00,,,-99.99,,2013-10-18 06:52:00,
2013-10-18 03:42:00,58.0,-99.9,29.75,SE,139,6.0,6.0,-999,0.00,,,-99.99,,2013-10-18 07:42:00,
2013-10-18 03:52:00,57.0,-99.9,29.77,West,263,2.0,7.0,-999,0.00,,,-99.99,,2013-10-18 07:52:00,
2013-10-18 04:42:00,57.0,-99.9,29.77,West,263,2.0,7.0,-999,0.00,,,-99.99,,2013-10-18 08:42:00,
2013-10-18 05:52:00,51.0,-99.9,29.81,South,186,-999.0,-999.0,-999,0.00,,,-99.99,,2013-10-18 09:52:00,
2013-10-18 06:43:00,51.0,-99.9,29.81,South,186,-999.0,-999.0,-999,0.00,,,-99.99,,2013-10-18 10:43:00,
2013-10-18 06:52:00,49.0,-99.9,29.84,WSW,255,-999.0,6.0,-999,0.00,,,-99.99,,2013-10-18 10:52:00,
2013-10-18 07:42:00,49.0,-99.9,29.84,WSW,255,-999.0,6.0,-999,0.00,,,-99.99,,2013-10-18 11:42:00,
2013-10-18 07:52:00,50.0,-99.9,29.86,WSW,255,-999.0,-999.0,-999,0.00,,,-99.99,,2013-10-18 11:52:00,
2013-10-18 08:42:00,50.0,-99.9,29.86,WSW,255,-999.0,-999.0,-999,0.00,,,-99.99,,2013-10-18 12:42:00,
2013-10-18 08:52:00,57.0,-99.9,29.88,SSW,206,3.0,6.0,-999,0.00,,,-99.99,,2013-10-18 12:52:00,
2013-10-18 09:42:00,57.0,-99.9,29.88,SSW,206,3.0,6.0,-999,0.00,,,-99.99,,2013-10-18 13:42:00,
2013-10-18 09:52:00,60.0,-99.9,29.89,NNE,24,3.0,8.0,-999,0.00,,,-99.99,,2013-10-18 13:52:00,
2013-10-18 10:42:00,60.0,-99.9,29.89,NNE,24,3.0,8.0,-999,0.00,,,-99.99,,2013-10-18 14:42:00,
2013-10-18 10:52:00,63.0,-99.9,29.90,ENE,69,7.0,8.0,-999,0.00,,,-99.99,,2013-10-18 14:52:00,
2013-10-18 11:43:00,63.0,-99.9,29.90,ENE,69,7.0,8.0,-999,0.00,,,-99.99,,2013-10-18 15:43:00,
2013-10-18 11:52:00,65.0,-99.9,29.90,East,90,9.0,10.0,-999,0.00,,,-99.99,,2013-10-18 15:52:00,
2013-10-18 12:42:00,65.0,-99.9,29.90,East,90,9.0,10.0,-999,0.00,,,-99.99,,2013-10-18 16:42:00,
2013-10-18 12:52:00,66.0,-99.9,29.89,NE,50,-999.0,10.0,-999,0.00,,,-99.99,,2013-10-18 16:52:00,
2013-10-18 13:42:00,66.0,-99.9,29.89,NE,50,-999.0,10.0,-999,0.00,,,-99.99,,2013-10-18 17:42:00,
2013-10-18 13:52:00,65.0,-99.9,29.89,East,96,2.0,9.0,-999,0.00,,,-99.99,,2013-10-18 17:52:00,
2013-10-18 14:42:00,65.0,-99.9,29.89,East,96,2.0,9.0,-999,0.00,,,-99.99,,2013-10-18 18:42:00,
2013-10-18 14:52:00,64.0,-99.9,29.89,NE,54,-999.0,8.0,-999,0.00,,,-99.99,,2013-10-18 18:52:00,
2013-10-18 15:42:00,64.0,-99.9,29.89,NE,54,-999.0,8.0,-999,0.00,,,-99.99,,2013-10-18 19:42:00,
2013-10-18 15:52:00,63.0,-99.9,29.89,South,190,-999.0,7.0,-999,0.00,,,-99.99,,2013-10-18 19:52:00,
2013-10-18 16:42:00,63.0,-99.9,29.89,South,190,-999.0,7.0,-999,0.00,,,-99.99,,2013-10-18 20:42:00,
2013-10-18 16:52:00,62.0,-99.9,29.89,SE,132,-999.0,3.0,-999,0.00,,,-99.99,,2013-10-18 20:52:00,
2013-10-18 17:45:00,62.0,-99.9,29.89,SE,132,-999.0,3.0,-999,0.00,,,-99.99,,2013-10-18 21:45:00,
2013-10-18 17:52:00,58.0,-99.9,29.91,SE,135,-999.0,-999.0,-999,0.00,,,-99.99,,2013-10-18 21:52:00,
2013-10-18 18:43:00,58.0,-99.9,29.91,SE,135,-999.0,-999.0,-999,0.00,,,-99.99,,2013-10-18 22:43:00,
2013-10-18 18:52:00,54.0,-99.9,29.93,West,263,-999.0,-999.0,-999,0.00,,,-99.99,,2013-10-18 22:52:00,
2013-10-18 19:43:00,54.0,-99.9,29.93,West,263,-999.0,-999.0,-999,0.00,,,-99.99,,2013-10-18 23:43:00,
2013-10-18 19:52:00,51.0,-99.9,29.96,West,263,-999.0,-999.0,-999,0.00,,,-99.99,,2013-10-18 23:52:00,
2013-10-18 20:42:00,51.0,-99.9,29.96,West,263,-999.0,-999.0,-999,0.00,,,-99.99,,2013-10-19 00:42:00,
2013-10-18 20:52:00,49.0,-99.9,29.96,West,263,-999.0,-999.0,-999,0.00,,,-99.99,,2013-10-19 00:52:00,
2013-10-18 21:42:00,49.0,-99.9,29.96,West,263,-999.0,-999.0,-999,0.00,,,-99.99,,2013-10-19 01:42:00,
2013-10-18 21:52:00,46.0,-99.9,29.98,West,263,-999.0,-999.0,-999,0.00,,,-99.99,,2013-10-19 01:52:00,
2013-10-18 22:42:00,46.0,-99.9,29.98,West,263,-999.0,-999.0,-999,0.00,,,-99.99,,2013-10-19 02:42:00,
2013-10-18 22:52:00,44.0,-99.9,29.99,West,263,-999.0,-999.0,-999,0.00,,,-99.99,,2013-10-19 02:52:00,
2013-10-18 23:45:00,44.0,-99.9,29.99,West,263,-999.0,-999.0,-999,0.00,,,-99.99,,2013-10-19 03:45:00,
2013-10-18 23:52:00,42.0,-99.9,30.00,West,263,-999.0,-999.0,-999,0.00,,,-99.99,,2013-10-19 03:52:00,